Location: Pandora
(40.9481°N, 83.9611°W)
Time: 13:38:20
(UTC-04:00)

Nauka - Pass Details

Date: 18 September 2021
Orbit: 417 x 423 km, 51.6° (Epoch: 26 October)

Event Time Altitude Azimuth Distance (km) Brightness Sun altitude
Rises 20:57:47 0° 247° (WSW) 2,352 ? -15.4°
Reaches altitude 10° 20:59:55 10° 254° (WSW) 1,492 ? -15.8°
Maximum altitude 21:03:09 46° 329° (NNW) 570 ? -16.4°
Enters shadow 21:05:30 17° 39° (NE) 1,147 ? -16.8°
